Data supplied by UK-AIR on 14/5/2021
All Data GMT hour ending 
Status: R =Ratified P=Provisional,P*=As supplied
,,London Hillingdon,,,,,,,,,,,,,,,,,,,,,,,
Date,time,"Nitric oxide",status,unit,"Nitrogen dioxide",status,unit,"Nitrogen oxides as nitrogen dioxide",status,unit,"Ozone",status,unit
 
01-01-2020,01:00,36.87730,R,ugm-3,42.98227,R,ugm-3,99.52668,R,ugm-3,0.61576,R,ugm-3
01-01-2020,02:00,,,,,,,,,,0.82101,R,ugm-3
01-01-2020,03:00,20.79732,R,ugm-3,44.59524,R,ugm-3,76.48402,R,ugm-3,0.82101,R,ugm-3
01-01-2020,04:00,33.16496,R,ugm-3,45.95522,R,ugm-3,96.80746,R,ugm-3,0.71838,R,ugm-3
01-01-2020,05:00,9.26035,R,ugm-3,40.73558,R,ugm-3,54.93458,R,ugm-3,0.71838,R,ugm-3
01-01-2020,06:00,7.44520,R,ugm-3,37.86027,R,ugm-3,49.27608,R,ugm-3,1.48808,R,ugm-3
01-01-2020,07:00,36.82603,R,ugm-3,44.11400,R,ugm-3,100.57979,R,ugm-3,0.66707,R,ugm-3
01-01-2020,08:00,24.24303,R,ugm-3,37.18995,R,ugm-3,74.36208,R,ugm-3,0.46182,R,ugm-3
01-01-2020,09:00,35.31853,R,ugm-3,36.94748,R,ugm-3,91.10181,R,ugm-3,0.82101,R,ugm-3
01-01-2020,10:00,38.85654,R,ugm-3,41.37783,R,ugm-3,100.95702,R,ugm-3,1.43677,R,ugm-3
01-01-2020,11:00,89.03469,R,ugm-3,53.13601,R,ugm-3,189.65397,R,ugm-3,1.07758,R,ugm-3
01-01-2020,12:00,43.28674,R,ugm-3,54.10677,R,ugm-3,120.47884,R,ugm-3,3.54061,R,ugm-3
01-01-2020,13:00,28.61170,R,ugm-3,50.57908,R,ugm-3,94.44975,R,ugm-3,5.18263,R,ugm-3
01-01-2020,14:00,17.87462,R,ugm-3,50.77420,R,ugm-3,78.18157,R,ugm-3,8.26142,R,ugm-3
01-01-2020,15:00,43.71745,R,ugm-3,65.23488,R,ugm-3,132.26737,R,ugm-3,2.00121,R,ugm-3
01-01-2020,16:00,45.37878,R,ugm-3,62.92333,R,ugm-3,132.50314,R,ugm-3,2.25778,R,ugm-3
01-01-2020,17:00,81.12802,R,ugm-3,75.16177,R,ugm-3,199.55633,R,ugm-3,0.87232,R,ugm-3
01-01-2020,18:00,44.36352,R,ugm-3,74.66532,R,ugm-3,142.68844,R,ugm-3,2.56566,R,ugm-3
01-01-2020,19:00,58.82320,R,ugm-3,76.49558,R,ugm-3,166.68990,R,ugm-3,1.69334,R,ugm-3
01-01-2020,20:00,44.48658,R,ugm-3,70.98722,R,ugm-3,139.19903,R,ugm-3,2.77091,R,ugm-3
01-01-2020,21:00,43.10214,R,ugm-3,72.35553,R,ugm-3,138.44457,R,ugm-3,1.79596,R,ugm-3
01-01-2020,22:00,48.14765,R,ugm-3,69.99477,R,ugm-3,143.82014,R,ugm-3,0.97495,R,ugm-3
01-01-2020,23:00,36.21072,R,ugm-3,62.83456,R,ugm-3,118.35690,R,ugm-3,1.43677,R,ugm-3
01-01-2020,24:00,21.44339,R,ugm-3,49.92326,R,ugm-3,82.80268,R,ugm-3,5.64445,R,ugm-3
02-01-2020,01:00,6.60666,R,ugm-3,23.20522,R,ugm-3,33.33528,R,ugm-3,22.78706,R,ugm-3
02-01-2020,02:00,,,,,,,,,,26.61911,R,ugm-3
02-01-2020,03:00,3.16996,R,ugm-3,15.94256,R,ugm-3,20.80310,R,ugm-3,22.58177,R,ugm-3
02-01-2020,04:00,4.58568,R,ugm-3,15.65874,R,ugm-3,22.69001,R,ugm-3,20.37491,R,ugm-3
02-01-2020,05:00,11.11026,R,ugm-3,25.60851,R,ugm-3,42.64401,R,ugm-3,15.49930,R,ugm-3
02-01-2020,06:00,20.49705,R,ugm-3,36.97187,R,ugm-3,68.40023,R,ugm-3,9.90518,R,ugm-3
02-01-2020,07:00,42.99455,R,ugm-3,56.01704,R,ugm-3,121.94110,R,ugm-3,4.92693,R,ugm-3
02-01-2020,08:00,45.11812,R,ugm-3,71.91301,R,ugm-3,141.09316,R,ugm-3,6.26131,R,ugm-3
02-01-2020,09:00,41.57884,R,ugm-3,65.45234,R,ugm-3,129.20568,R,ugm-3,10.00783,R,ugm-3
02-01-2020,10:00,44.56415,R,ugm-3,67.19606,R,ugm-3,135.52680,R,ugm-3,7.74965,R,ugm-3
02-01-2020,11:00,36.28531,R,ugm-3,63.00232,R,ugm-3,118.63902,R,ugm-3,11.29088,R,ugm-3
02-01-2020,12:00,33.76165,R,ugm-3,59.93751,R,ugm-3,111.70465,R,ugm-3,12.93319,R,ugm-3
02-01-2020,13:00,30.22237,R,ugm-3,55.22223,R,ugm-3,101.56255,R,ugm-3,16.47443,R,ugm-3
02-01-2020,14:00,25.14428,R,ugm-3,54.94202,R,ugm-3,93.49604,R,ugm-3,21.81193,R,ugm-3
02-01-2020,15:00,18.03494,R,ugm-3,46.54927,R,ugm-3,74.20246,R,ugm-3,29.25365,R,ugm-3
02-01-2020,16:00,17.23475,R,ugm-3,48.57814,R,ugm-3,75.00439,R,ugm-3,29.45894,R,ugm-3
02-01-2020,17:00,18.46581,R,ugm-3,51.73801,R,ugm-3,80.05186,R,ugm-3,30.94728,R,ugm-3
02-01-2020,18:00,17.88106,R,ugm-3,50.88923,R,ugm-3,78.30647,R,ugm-3,31.40919,R,ugm-3
02-01-2020,19:00,18.61969,R,ugm-3,56.64387,R,ugm-3,85.19367,R,ugm-3,28.43250,R,ugm-3
02-01-2020,20:00,12.27976,R,ugm-3,46.08075,R,ugm-3,64.90946,R,ugm-3,36.54141,R,ugm-3
02-01-2020,21:00,9.01747,R,ugm-3,39.80862,R,ugm-3,53.63522,R,ugm-3,39.26148,R,ugm-3
02-01-2020,22:00,6.46303,R,ugm-3,31.74354,R,ugm-3,41.65338,R,ugm-3,44.49635,R,ugm-3
02-01-2020,23:00,5.38586,R,ugm-3,27.92316,R,ugm-3,36.18136,R,ugm-3,45.11221,R,ugm-3
02-01-2020,24:00,3.10841,R,ugm-3,14.43307,R,ugm-3,19.19924,R,ugm-3,54.14492,R,ugm-3
03-01-2020,01:00,3.40714,R,ugm-3,15.22522,R,ugm-3,20.44943,R,ugm-3,49.68861,R,ugm-3
03-01-2020,02:00,,,,,,,,,,50.78368,R,ugm-3
03-01-2020,03:00,2.46299,R,ugm-3,12.31559,R,ugm-3,16.09213,R,ugm-3,48.14868,R,ugm-3
03-01-2020,04:00,2.00118,R,ugm-3,13.54280,R,ugm-3,16.61123,R,ugm-3,53.23047,R,ugm-3
03-01-2020,05:00,1.38543,R,ugm-3,15.28918,R,ugm-3,17.41348,R,ugm-3,58.72291,R,ugm-3
03-01-2020,06:00,4.77205,R,ugm-3,30.34138,R,ugm-3,37.65842,R,ugm-3,42.34825,R,ugm-3
03-01-2020,07:00,17.14859,R,ugm-3,53.12831,R,ugm-3,79.42246,R,ugm-3,25.61428,R,ugm-3
03-01-2020,08:00,14.87032,R,ugm-3,50.72273,R,ugm-3,73.52358,R,ugm-3,26.74356,R,ugm-3
03-01-2020,09:00,10.06749,R,ugm-3,45.77013,R,ugm-3,61.20673,R,ugm-3,29.41278,R,ugm-3
03-01-2020,10:00,1.29307,R,ugm-3,13.21282,R,ugm-3,15.19550,R,ugm-3,58.00427,R,ugm-3
03-01-2020,11:00,1.07756,R,ugm-3,12.17473,R,ugm-3,13.82696,R,ugm-3,60.31418,R,ugm-3
03-01-2020,12:00,1.44701,R,ugm-3,14.01499,R,ugm-3,16.23370,R,ugm-3,60.31418,R,ugm-3
03-01-2020,13:00,2.58614,R,ugm-3,13.49531,R,ugm-3,17.46067,R,ugm-3,61.44346,R,ugm-3
03-01-2020,14:00,1.53937,R,ugm-3,12.97674,R,ugm-3,15.33708,R,ugm-3,62.93207,R,ugm-3
03-01-2020,15:00,1.57016,R,ugm-3,14.01493,R,ugm-3,16.42247,R,ugm-3,63.08606,R,ugm-3
03-01-2020,16:00,1.50858,R,ugm-3,17.45990,R,ugm-3,19.77303,R,ugm-3,59.18489,R,ugm-3
03-01-2020,17:00,1.10835,R,ugm-3,28.92752,R,ugm-3,30.62696,R,ugm-3,46.14676,R,ugm-3
03-01-2020,18:00,2.86323,R,ugm-3,50.44572,R,ugm-3,54.83594,R,ugm-3,25.66561,R,ugm-3
03-01-2020,19:00,4.67969,R,ugm-3,49.12344,R,ugm-3,56.29887,R,ugm-3,25.56294,R,ugm-3
03-01-2020,20:00,5.35701,R,ugm-3,57.19276,R,ugm-3,65.40673,R,ugm-3,18.88989,R,ugm-3
03-01-2020,21:00,3.87922,R,ugm-3,49.59576,R,ugm-3,55.54381,R,ugm-3,21.55911,R,ugm-3
03-01-2020,22:00,1.16992,R,ugm-3,26.66232,R,ugm-3,28.45617,R,ugm-3,39.42237,R,ugm-3
03-01-2020,23:00,0.92362,R,ugm-3,20.05571,R,ugm-3,21.47191,R,ugm-3,46.24942,R,ugm-3
03-01-2020,24:00,4.92599,R,ugm-3,34.16377,R,ugm-3,41.71684,R,ugm-3,30.69607,R,ugm-3
04-01-2020,01:00,4.59924,R,ugm-3,42.48636,R,ugm-3,49.53843,R,ugm-3,24.36950,R,ugm-3
04-01-2020,02:00,,,,,,,,,,24.50640,R,ugm-3
04-01-2020,03:00,3.63422,R,ugm-3,31.39259,R,ugm-3,36.96498,R,ugm-3,27.92909,R,ugm-3
04-01-2020,04:00,3.41863,R,ugm-3,29.74036,R,ugm-3,34.98219,R,ugm-3,30.18805,R,ugm-3
04-01-2020,05:00,4.55818,R,ugm-3,31.86425,R,ugm-3,38.85336,R,ugm-3,31.06084,R,ugm-3
04-01-2020,06:00,6.31369,R,ugm-3,33.32693,R,ugm-3,43.00779,R,ugm-3,30.70146,R,ugm-3
04-01-2020,07:00,24.23842,R,ugm-3,58.90614,R,ugm-3,96.07119,R,ugm-3,12.57836,R,ugm-3
04-01-2020,08:00,18.41750,R,ugm-3,56.83162,R,ugm-3,85.07139,R,ugm-3,14.73465,R,ugm-3
04-01-2020,09:00,20.69659,R,ugm-3,54.23405,R,ugm-3,85.96837,R,ugm-3,17.14764,R,ugm-3
04-01-2020,10:00,18.94108,R,ugm-3,55.98161,R,ugm-3,85.02418,R,ugm-3,19.92001,R,ugm-3
04-01-2020,11:00,15.64564,R,ugm-3,50.69568,R,ugm-3,74.68532,R,ugm-3,24.74599,R,ugm-3
04-01-2020,12:00,8.16160,R,ugm-3,37.99981,R,ugm-3,50.51409,R,ugm-3,35.78414,R,ugm-3
04-01-2020,13:00,8.68518,R,ugm-3,35.02537,R,ugm-3,48.34246,R,ugm-3,40.09672,R,ugm-3
04-01-2020,14:00,6.06730,R,ugm-3,25.58470,R,ugm-3,34.88777,R,ugm-3,49.49198,R,ugm-3
04-01-2020,15:00,3.72662,R,ugm-3,25.82183,R,ugm-3,31.53590,R,ugm-3,52.77776,R,ugm-3
04-01-2020,16:00,0.95475,R,ugm-3,15.15379,R,ugm-3,16.61772,R,ugm-3,60.73549,R,ugm-3
04-01-2020,17:00,6.80647,R,ugm-3,48.81140,R,ugm-3,59.24784,R,ugm-3,31.72826,R,ugm-3
04-01-2020,18:00,14.56769,R,ugm-3,62.12086,R,ugm-3,84.45767,R,ugm-3,21.51156,R,ugm-3
04-01-2020,19:00,31.47606,R,ugm-3,77.73935,R,ugm-3,126.00197,R,ugm-3,7.70104,R,ugm-3
04-01-2020,20:00,24.79279,R,ugm-3,71.84127,R,ugm-3,109.85635,R,ugm-3,9.65196,R,ugm-3
04-01-2020,21:00,18.75628,R,ugm-3,64.29055,R,ugm-3,93.04979,R,ugm-3,10.93547,R,ugm-3
04-01-2020,22:00,14.75248,R,ugm-3,58.76891,R,ugm-3,81.38906,R,ugm-3,12.68104,R,ugm-3
04-01-2020,23:00,18.01712,R,ugm-3,58.72018,R,ugm-3,86.34605,R,ugm-3,8.41980,R,ugm-3
04-01-2020,24:00,17.70914,R,ugm-3,56.35986,R,ugm-3,83.51348,R,ugm-3,7.75237,R,ugm-3
05-01-2020,01:00,7.18890,R,ugm-3,42.62802,R,ugm-3,53.65085,R,ugm-3,19.03345,R,ugm-3
05-01-2020,02:00,,,,,,,,,,43.20183,R,ugm-3
05-01-2020,03:00,1.97181,R,ugm-3,17.75686,R,ugm-3,20.78026,R,ugm-3,44.36575,R,ugm-3
05-01-2020,04:00,1.63291,R,ugm-3,14.87610,R,ugm-3,17.37985,R,ugm-3,47.60075,R,ugm-3
05-01-2020,05:00,2.71124,R,ugm-3,17.47318,R,ugm-3,21.63036,R,ugm-3,44.98194,R,ugm-3
05-01-2020,06:00,4.28253,R,ugm-3,24.98176,R,ugm-3,31.54821,R,ugm-3,39.94971,R,ugm-3
05-01-2020,07:00,13.06326,R,ugm-3,46.41955,R,ugm-3,66.44960,R,ugm-3,23.56930,R,ugm-3
05-01-2020,08:00,17.80793,R,ugm-3,55.81592,R,ugm-3,83.12103,R,ugm-3,18.53708,R,ugm-3
05-01-2020,09:00,18.88627,R,ugm-3,58.88528,R,ugm-3,87.84382,R,ugm-3,18.28033,R,ugm-3
05-01-2020,10:00,23.26123,R,ugm-3,62.75614,R,ugm-3,98.42286,R,ugm-3,19.76946,R,ugm-3
05-01-2020,11:00,13.58702,R,ugm-3,48.11953,R,ugm-3,68.95267,R,ugm-3,39.43622,R,ugm-3
05-01-2020,12:00,9.24287,R,ugm-3,36.55052,R,ugm-3,50.72272,R,ugm-3,52.32488,R,ugm-3
05-01-2020,13:00,8.19535,R,ugm-3,40.18750,R,ugm-3,52.75352,R,ugm-3,51.09250,R,ugm-3
05-01-2020,14:00,8.62668,R,ugm-3,38.58157,R,ugm-3,51.80896,R,ugm-3,52.06813,R,ugm-3
05-01-2020,15:00,9.27368,R,ugm-3,46.32667,R,ugm-3,60.54612,R,ugm-3,44.62249,R,ugm-3
05-01-2020,16:00,11.80007,R,ugm-3,55.34614,R,ugm-3,73.43932,R,ugm-3,37.58765,R,ugm-3
05-01-2020,17:00,13.83350,R,ugm-3,56.95104,R,ugm-3,78.16211,R,ugm-3,34.71209,R,ugm-3
05-01-2020,18:00,22.12127,R,ugm-3,68.09337,R,ugm-3,102.01218,R,ugm-3,26.08542,R,ugm-3
05-01-2020,19:00,23.53851,R,ugm-3,70.35971,R,ugm-3,106.45159,R,ugm-3,20.69375,R,ugm-3
05-01-2020,20:00,20.21108,R,ugm-3,66.91346,R,ugm-3,97.90335,R,ugm-3,20.64240,R,ugm-3
05-01-2020,21:00,20.42675,R,ugm-3,68.70803,R,ugm-3,100.02861,R,ugm-3,20.43700,R,ugm-3
05-01-2020,22:00,21.32022,R,ugm-3,70.50232,R,ugm-3,103.19287,R,ugm-3,14.58319,R,ugm-3
05-01-2020,23:00,13.89512,R,ugm-3,63.37400,R,ugm-3,84.67955,R,ugm-3,18.48573,R,ugm-3
05-01-2020,24:00,6.96296,R,ugm-3,38.34612,R,ugm-3,49.02252,R,ugm-3,31.06629,R,ugm-3
06-01-2020,01:00,4.60255,R,ugm-3,27.33815,R,ugm-3,34.39530,R,ugm-3,36.29317,R,ugm-3
06-01-2020,02:00,,,,,,,,,,58.41146,R,ugm-3
06-01-2020,03:00,1.44857,R,ugm-3,9.54322,R,ugm-3,11.76433,R,ugm-3,67.33068,R,ugm-3
06-01-2020,04:00,1.47939,R,ugm-3,9.54321,R,ugm-3,11.81157,R,ugm-3,66.66302,R,ugm-3
06-01-2020,05:00,3.76012,R,ugm-3,16.10960,R,ugm-3,21.87503,R,ugm-3,61.42448,R,ugm-3
06-01-2020,06:00,14.63981,R,ugm-3,36.70496,R,ugm-3,59.15235,R,ugm-3,42.57600,R,ugm-3
06-01-2020,07:00,34.08763,R,ugm-3,61.97455,R,ugm-3,114.24152,R,ugm-3,28.29840,R,ugm-3
06-01-2020,08:00,40.77571,R,ugm-3,73.83090,R,ugm-3,136.35279,R,ugm-3,20.44059,R,ugm-3
06-01-2020,09:00,47.15559,R,ugm-3,76.14361,R,ugm-3,148.44784,R,ugm-3,16.79415,R,ugm-3
06-01-2020,10:00,32.54660,R,ugm-3,62.35309,R,ugm-3,112.25718,R,ugm-3,30.55816,R,ugm-3
06-01-2020,11:00,24.53323,R,ugm-3,50.82795,R,ugm-3,88.44505,R,ugm-3,36.05350,R,ugm-3
06-01-2020,12:00,21.51281,R,ugm-3,46.29342,R,ugm-3,79.27927,R,ugm-3,40.05944,R,ugm-3
06-01-2020,13:00,20.83476,R,ugm-3,47.52208,R,ugm-3,79.46826,R,ugm-3,35.69399,R,ugm-3
06-01-2020,14:00,,,,,,,,,,26.39815,R,ugm-3
06-01-2020,15:00,27.89268,R,ugm-3,64.57538,R,ugm-3,107.34357,R,ugm-3,23.31665,R,ugm-3
06-01-2020,16:00,35.38210,R,ugm-3,70.71463,R,ugm-3,124.96643,R,ugm-3,17.56453,R,ugm-3
06-01-2020,17:00,44.78240,R,ugm-3,77.89260,R,ugm-3,146.55799,R,ugm-3,12.48006,R,ugm-3
06-01-2020,18:00,38.24842,R,ugm-3,69.81590,R,ugm-3,128.46266,R,ugm-3,14.17488,R,ugm-3
06-01-2020,19:00,49.99109,R,ugm-3,80.86719,R,ugm-3,157.51913,R,ugm-3,4.87904,R,ugm-3
06-01-2020,20:00,26.41329,R,ugm-3,68.11940,R,ugm-3,108.61922,R,ugm-3,12.68549,R,ugm-3
06-01-2020,21:00,10.63312,R,ugm-3,54.89626,R,ugm-3,71.20016,R,ugm-3,23.16258,R,ugm-3
06-01-2020,22:00,3.14371,R,ugm-3,35.15008,R,ugm-3,39.97036,R,ugm-3,39.49450,R,ugm-3
06-01-2020,23:00,5.20869,R,ugm-3,35.33830,R,ugm-3,43.32485,R,ugm-3,30.50681,R,ugm-3
06-01-2020,24:00,11.34200,R,ugm-3,47.71457,R,ugm-3,65.10538,R,ugm-3,20.80010,R,ugm-3
07-01-2020,01:00,4.19312,R,ugm-3,31.76054,R,ugm-3,38.18989,R,ugm-3,28.42323,R,ugm-3
07-01-2020,02:00,,,,,,,,,,16.43753,R,ugm-3
07-01-2020,03:00,6.99880,R,ugm-3,30.90887,R,ugm-3,41.64022,R,ugm-3,19.51957,R,ugm-3
07-01-2020,04:00,7.73876,R,ugm-3,33.88631,R,ugm-3,45.75225,R,ugm-3,16.89984,R,ugm-3
07-01-2020,05:00,21.21222,R,ugm-3,47.11609,R,ugm-3,79.64105,R,ugm-3,6.06134,R,ugm-3
07-01-2020,06:00,26.14530,R,ugm-3,50.09218,R,ugm-3,90.18108,R,ugm-3,14.43421,R,ugm-3
07-01-2020,07:00,49.08410,R,ugm-3,67.24189,R,ugm-3,142.50312,R,ugm-3,8.01329,R,ugm-3
07-01-2020,08:00,70.63547,R,ugm-3,81.03624,R,ugm-3,189.34246,R,ugm-3,3.85255,R,ugm-3
07-01-2020,09:00,71.40626,R,ugm-3,84.15547,R,ugm-3,193.64355,R,ugm-3,4.93126,R,ugm-3
07-01-2020,10:00,65.79489,R,ugm-3,84.58266,R,ugm-3,185.46675,R,ugm-3,6.06134,R,ugm-3
07-01-2020,11:00,37.05973,R,ugm-3,66.15867,R,ugm-3,122.98279,R,ugm-3,19.16000,R,ugm-3
07-01-2020,12:00,22.32217,R,ugm-3,47.73018,R,ugm-3,81.95702,R,ugm-3,31.53951,R,ugm-3
07-01-2020,13:00,19.08484,R,ugm-3,44.46995,R,ugm-3,73.73296,R,ugm-3,33.44010,R,ugm-3
07-01-2020,14:00,23.80209,R,ugm-3,54.48855,R,ugm-3,90.98458,R,ugm-3,25.47817,R,ugm-3
07-01-2020,15:00,26.79277,R,ugm-3,57.51253,R,ugm-3,98.59420,R,ugm-3,21.00922,R,ugm-3
07-01-2020,16:00,23.67876,R,ugm-3,52.03083,R,ugm-3,88.33776,R,ugm-3,25.27270,R,ugm-3
07-01-2020,17:00,33.14410,R,ugm-3,62.61508,R,ugm-3,113.43532,R,ugm-3,17.10530,R,ugm-3
07-01-2020,18:00,28.88932,R,ugm-3,53.96700,R,ugm-3,98.26335,R,ugm-3,21.47152,R,ugm-3
07-01-2020,19:00,22.44549,R,ugm-3,53.73276,R,ugm-3,88.14870,R,ugm-3,21.72836,R,ugm-3
07-01-2020,20:00,21.98302,R,ugm-3,51.74779,R,ugm-3,85.45461,R,ugm-3,24.50219,R,ugm-3
07-01-2020,21:00,14.05927,R,ugm-3,38.70528,R,ugm-3,60.26251,R,ugm-3,32.00181,R,ugm-3
07-01-2020,22:00,7.18379,R,ugm-3,32.09043,R,ugm-3,43.10542,R,ugm-3,36.11120,R,ugm-3
07-01-2020,23:00,4.99474,R,ugm-3,30.38960,R,ugm-3,38.04810,R,ugm-3,33.38873,R,ugm-3
07-01-2020,24:00,2.83652,R,ugm-3,16.77806,R,ugm-3,21.12733,R,ugm-3,43.50808,R,ugm-3
08-01-2020,01:00,1.35708,R,ugm-3,9.07799,R,ugm-3,11.15882,R,ugm-3,50.48577,R,ugm-3
08-01-2020,02:00,,,,,,,,,,50.89678,R,ugm-3
08-01-2020,03:00,1.04866,R,ugm-3,8.13241,R,ugm-3,9.74033,R,ugm-3,51.78730,R,ugm-3
08-01-2020,04:00,1.20287,R,ugm-3,8.03780,R,ugm-3,9.88218,R,ugm-3,51.58180,R,ugm-3
08-01-2020,05:00,2.15900,R,ugm-3,15.55556,R,ugm-3,18.86598,R,ugm-3,43.25884,R,ugm-3
08-01-2020,06:00,6.10687,R,ugm-3,31.72531,R,ugm-3,41.08906,R,ugm-3,33.13771,R,ugm-3
08-01-2020,07:00,19.73939,R,ugm-3,56.07238,R,ugm-3,86.33903,R,ugm-3,17.82757,R,ugm-3
08-01-2020,08:00,25.96963,R,ugm-3,62.45389,R,ugm-3,102.27345,R,ugm-3,16.44041,R,ugm-3
08-01-2020,09:00,25.81542,R,ugm-3,58.76585,R,ugm-3,98.34894,R,ugm-3,19.16336,R,ugm-3
08-01-2020,10:00,33.27938,R,ugm-3,60.08773,R,ugm-3,111.11539,R,ugm-3,18.54684,R,ugm-3
08-01-2020,11:00,12.76892,R,ugm-3,43.59155,R,ugm-3,63.17028,R,ugm-3,28.41109,R,ugm-3
08-01-2020,12:00,10.20897,R,ugm-3,37.16175,R,ugm-3,52.81528,R,ugm-3,33.24046,R,ugm-3
08-01-2020,13:00,12.27543,R,ugm-3,41.22753,R,ugm-3,60.04960,R,ugm-3,27.64045,R,ugm-3
08-01-2020,14:00,14.06431,R,ugm-3,44.96241,R,ugm-3,66.52739,R,ugm-3,26.92118,R,ugm-3
08-01-2020,15:00,15.11297,R,ugm-3,49.59586,R,ugm-3,72.76876,R,ugm-3,21.83492,R,ugm-3
08-01-2020,16:00,33.52612,R,ugm-3,66.56545,R,ugm-3,117.97145,R,ugm-3,8.37434,R,ugm-3
08-01-2020,17:00,61.77812,R,ugm-3,80.45893,R,ugm-3,175.18406,R,ugm-3,2.31193,R,ugm-3
08-01-2020,18:00,87.53185,R,ugm-3,84.80190,R,ugm-3,219.01553,R,ugm-3,0.71927,R,ugm-3
08-01-2020,19:00,102.18218,R,ugm-3,89.90445,R,ugm-3,246.58161,R,ugm-3,0.71927,R,ugm-3
08-01-2020,20:00,105.57489,R,ugm-3,88.67415,R,ugm-3,250.55339,R,ugm-3,0.87340,R,ugm-3
08-01-2020,21:00,107.05534,R,ugm-3,89.28843,R,ugm-3,253.43766,R,ugm-3,1.23303,R,ugm-3
08-01-2020,22:00,63.72121,R,ugm-3,72.75124,R,ugm-3,170.45574,R,ugm-3,1.48991,R,ugm-3
08-01-2020,23:00,24.30412,R,ugm-3,57.01679,R,ugm-3,94.28259,R,ugm-3,8.99085,R,ugm-3
08-01-2020,24:00,10.20897,R,ugm-3,35.45955,R,ugm-3,51.11308,R,ugm-3,25.79090,R,ugm-3
09-01-2020,01:00,2.71514,R,ugm-3,15.82964,R,ugm-3,19.99280,R,ugm-3,36.86040,R,ugm-3
09-01-2020,02:00,,,,,,,,,,46.04124,R,ugm-3
09-01-2020,03:00,2.15977,R,ugm-3,9.98014,R,ugm-3,13.29174,R,ugm-3,48.50773,R,ugm-3
09-01-2020,04:00,2.71514,R,ugm-3,9.50700,R,ugm-3,13.67016,R,ugm-3,49.94652,R,ugm-3
09-01-2020,05:00,3.05453,R,ugm-3,9.83803,R,ugm-3,14.52158,R,ugm-3,50.51176,R,ugm-3
09-01-2020,06:00,9.04018,R,ugm-3,22.08777,R,ugm-3,35.94920,R,ugm-3,41.87903,R,ugm-3
09-01-2020,07:00,20.17843,R,ugm-3,38.78269,R,ugm-3,69.72252,R,ugm-3,31.75612,R,ugm-3
09-01-2020,08:00,19.86989,R,ugm-3,40.39102,R,ugm-3,70.85776,R,ugm-3,35.09617,R,ugm-3
09-01-2020,09:00,22.61589,R,ugm-3,47.62753,R,ugm-3,82.30474,R,ugm-3,31.39642,R,ugm-3
09-01-2020,10:00,25.88640,R,ugm-3,50.27567,R,ugm-3,89.96760,R,ugm-3,30.36872,R,ugm-3
09-01-2020,11:00,19.62306,R,ugm-3,41.33710,R,ugm-3,71.42538,R,ugm-3,36.94604,R,ugm-3
09-01-2020,12:00,17.37073,R,ugm-3,38.59413,R,ugm-3,65.22887,R,ugm-3,39.97777,R,ugm-3
09-01-2020,13:00,15.39608,R,ugm-3,38.31077,R,ugm-3,61.91776,R,ugm-3,41.21102,R,ugm-3
09-01-2020,14:00,28.41641,R,ugm-3,60.58684,R,ugm-3,104.15807,R,ugm-3,22.24984,R,ugm-3
09-01-2020,15:00,37.95026,R,ugm-3,74.30212,R,ugm-3,132.49171,R,ugm-3,11.76724,R,ugm-3
09-01-2020,16:00,78.36883,R,ugm-3,87.86846,R,ugm-3,208.03233,R,ugm-3,3.08312,R,ugm-3
09-01-2020,17:00,55.75294,R,ugm-3,84.32600,R,ugm-3,169.81265,R,ugm-3,5.34407,R,ugm-3
09-01-2020,18:00,30.85387,R,ugm-3,66.68819,R,ugm-3,113.99679,R,ugm-3,22.35261,R,ugm-3
09-01-2020,19:00,22.61589,R,ugm-3,66.78467,R,ugm-3,101.46188,R,ugm-3,24.97326,R,ugm-3
09-01-2020,20:00,41.03565,R,ugm-3,90.24205,R,ugm-3,153.16250,R,ugm-3,10.58537,R,ugm-3
09-01-2020,21:00,13.02033,R,ugm-3,51.22464,R,ugm-3,71.18887,R,ugm-3,39.97777,R,ugm-3
09-01-2020,22:00,3.02368,R,ugm-3,22.32566,R,ugm-3,26.96190,R,ugm-3,38.64175,R,ugm-3
09-01-2020,23:00,0.92562,R,ugm-3,17.40677,R,ugm-3,18.82603,R,ugm-3,36.84327,R,ugm-3
09-01-2020,24:00,0.61708,R,ugm-3,15.56208,R,ugm-3,16.50825,R,ugm-3,35.35309,R,ugm-3
10-01-2020,01:00,0.20577,R,ugm-3,14.19596,R,ugm-3,14.51147,R,ugm-3,35.70192,R,ugm-3
10-01-2020,02:00,,,,,,,,,,33.78320,R,ugm-3
10-01-2020,03:00,0.30865,R,ugm-3,13.39151,R,ugm-3,13.86476,R,ugm-3,44.81585,R,ugm-3
10-01-2020,04:00,0.24692,R,ugm-3,10.45768,R,ugm-3,10.83628,R,ugm-3,49.59552,R,ugm-3
10-01-2020,05:00,0.30865,R,ugm-3,9.88982,R,ugm-3,10.36308,R,ugm-3,51.80548,R,ugm-3
10-01-2020,06:00,0.95681,R,ugm-3,13.72263,R,ugm-3,15.18972,R,ugm-3,43.42820,R,ugm-3
10-01-2020,07:00,0.49384,R,ugm-3,14.62179,R,ugm-3,15.37900,R,ugm-3,49.95529,R,ugm-3
10-01-2020,08:00,1.01854,R,ugm-3,20.01618,R,ugm-3,21.57792,R,ugm-3,52.11385,R,ugm-3
10-01-2020,09:00,2.34574,R,ugm-3,18.69098,R,ugm-3,22.28772,R,ugm-3,54.16962,R,ugm-3
10-01-2020,10:00,0.80249,R,ugm-3,12.72894,R,ugm-3,13.95940,R,ugm-3,64.55127,R,ugm-3
10-01-2020,11:00,1.48152,R,ugm-3,12.68149,R,ugm-3,14.95312,R,ugm-3,64.60267,R,ugm-3
10-01-2020,12:00,1.82103,R,ugm-3,12.20823,R,ugm-3,15.00044,R,ugm-3,59.92578,R,ugm-3
10-01-2020,13:00,2.09882,R,ugm-3,12.72870,R,ugm-3,15.94684,R,ugm-3,60.28554,R,ugm-3
10-01-2020,14:00,1.60498,R,ugm-3,14.43231,R,ugm-3,16.89324,R,ugm-3,57.40746,R,ugm-3
10-01-2020,15:00,1.91363,R,ugm-3,17.12950,R,ugm-3,20.06368,R,ugm-3,55.60866,R,ugm-3
10-01-2020,16:00,6.41991,R,ugm-3,39.17980,R,ugm-3,49.02352,R,ugm-3,34.28002,R,ugm-3
10-01-2020,17:00,77.40928,R,ugm-3,94.24744,R,ugm-3,212.94002,R,ugm-3,3.54621,R,ugm-3
10-01-2020,18:00,88.08855,R,ugm-3,101.58011,R,ugm-3,236.64734,R,ugm-3,2.05577,R,ugm-3
10-01-2020,19:00,73.42770,R,ugm-3,102.81308,R,ugm-3,215.40066,R,ugm-3,2.15856,R,ugm-3
10-01-2020,20:00,58.76686,R,ugm-3,96.94805,R,ugm-3,187.05597,R,ugm-3,3.39203,R,ugm-3
10-01-2020,21:00,35.98853,R,ugm-3,79.77502,R,ugm-3,134.95665,R,ugm-3,5.75616,R,ugm-3
10-01-2020,22:00,43.92082,R,ugm-3,81.52442,R,ugm-3,148.86873,R,ugm-3,3.03227,R,ugm-3
10-01-2020,23:00,30.55630,R,ugm-3,68.51384,R,ugm-3,115.36617,R,ugm-3,8.99401,R,ugm-3
10-01-2020,24:00,9.07429,R,ugm-3,37.71240,R,ugm-3,51.62612,R,ugm-3,30.37405,R,ugm-3
11-01-2020,01:00,6.05170,R,ugm-3,29.60149,R,ugm-3,38.88063,R,ugm-3,33.78913,R,ugm-3
11-01-2020,02:00,,,,,,,,,,37.01041,R,ugm-3
11-01-2020,03:00,3.55074,R,ugm-3,20.68642,R,ugm-3,26.13082,R,ugm-3,46.00599,R,ugm-3
11-01-2020,04:00,3.27286,R,ugm-3,18.03550,R,ugm-3,23.05382,R,ugm-3,49.70703,R,ugm-3
11-01-2020,05:00,3.98301,R,ugm-3,18.79282,R,ugm-3,24.90002,R,ugm-3,56.59508,R,ugm-3
11-01-2020,06:00,4.97104,R,ugm-3,20.92292,R,ugm-3,28.54507,R,ugm-3,56.33806,R,ugm-3
11-01-2020,07:00,11.67114,R,ugm-3,36.92241,R,ugm-3,54.81791,R,ugm-3,45.80038,R,ugm-3
11-01-2020,08:00,12.69004,R,ugm-3,40.14129,R,ugm-3,59.59909,R,ugm-3,45.18354,R,ugm-3
11-01-2020,09:00,13.40019,R,ugm-3,41.04063,R,ugm-3,61.58730,R,ugm-3,44.56670,R,ugm-3
11-01-2020,10:00,12.01077,R,ugm-3,36.68568,R,ugm-3,55.10194,R,ugm-3,46.00599,R,ugm-3
11-01-2020,11:00,14.72786,R,ugm-3,40.09368,R,ugm-3,62.67609,R,ugm-3,42.40776,R,ugm-3
11-01-2020,12:00,19.26664,R,ugm-3,48.18794,R,ugm-3,77.72971,R,ugm-3,39.06654,R,ugm-3
11-01-2020,13:00,15.09837,R,ugm-3,37.72671,R,ugm-3,60.87722,R,ugm-3,46.36581,R,ugm-3
11-01-2020,14:00,16.39517,R,ugm-3,44.63795,R,ugm-3,69.77685,R,ugm-3,40.14601,R,ugm-3
11-01-2020,15:00,15.65414,R,ugm-3,48.61447,R,ugm-3,72.61716,R,ugm-3,38.80952,R,ugm-3
11-01-2020,16:00,12.75180,R,ugm-3,40.23596,R,ugm-3,59.78844,R,ugm-3,45.38915,R,ugm-3
11-01-2020,17:00,11.26975,R,ugm-3,37.39585,R,ugm-3,54.67589,R,ugm-3,47.54809,R,ugm-3
11-01-2020,18:00,10.31259,R,ugm-3,33.94028,R,ugm-3,49.75269,R,ugm-3,51.66036,R,ugm-3
11-01-2020,19:00,9.54069,R,ugm-3,33.32498,R,ugm-3,47.95383,R,ugm-3,53.09965,R,ugm-3
11-01-2020,20:00,6.73097,R,ugm-3,24.04702,R,ugm-3,34.36770,R,ugm-3,58.08578,R,ugm-3
11-01-2020,21:00,5.58856,R,ugm-3,22.91105,R,ugm-3,31.48006,R,ugm-3,58.08578,R,ugm-3
11-01-2020,22:00,4.19914,R,ugm-3,21.44375,R,ugm-3,27.88234,R,ugm-3,59.01104,R,ugm-3
11-01-2020,23:00,3.98301,R,ugm-3,18.17743,R,ugm-3,24.28462,R,ugm-3,61.73541,R,ugm-3
11-01-2020,24:00,2.99497,R,ugm-3,12.54428,R,ugm-3,17.13651,R,ugm-3,65.17944,R,ugm-3
12-01-2020,01:00,1.60613,R,ugm-3,7.82953,R,ugm-3,10.29222,R,ugm-3,68.00141,R,ugm-3
12-01-2020,02:00,,,,,,,,,,64.77957,R,ugm-3
12-01-2020,03:00,1.01927,R,ugm-3,6.77194,R,ugm-3,8.33481,R,ugm-3,65.70499,R,ugm-3
12-01-2020,04:00,1.08105,R,ugm-3,7.05608,R,ugm-3,8.71366,R,ugm-3,64.93381,R,ugm-3
12-01-2020,05:00,1.94589,R,ugm-3,9.61327,R,ugm-3,12.59693,R,ugm-3,62.56884,R,ugm-3
12-01-2020,06:00,3.39758,R,ugm-3,16.10104,R,ugm-3,21.31059,R,ugm-3,56.86207,R,ugm-3
12-01-2020,07:00,5.09637,R,ugm-3,18.65816,R,ugm-3,26.47249,R,ugm-3,54.18862,R,ugm-3
12-01-2020,08:00,5.71411,R,ugm-3,20.50502,R,ugm-3,29.26654,R,ugm-3,54.08580,R,ugm-3
12-01-2020,09:00,5.28169,R,ugm-3,20.17356,R,ugm-3,28.27205,R,ugm-3,57.01630,R,ugm-3
12-01-2020,10:00,6.30097,R,ugm-3,28.93449,R,ugm-3,38.59584,R,ugm-3,50.64117,R,ugm-3
12-01-2020,11:00,6.33186,R,ugm-3,22.54131,R,ugm-3,32.25002,R,ugm-3,59.17562,R,ugm-3
12-01-2020,12:00,6.57895,R,ugm-3,24.95649,R,ugm-3,35.04408,R,ugm-3,54.85699,R,ugm-3
12-01-2020,13:00,4.13887,R,ugm-3,19.98424,R,ugm-3,26.33042,R,ugm-3,58.81574,R,ugm-3
12-01-2020,14:00,3.33581,R,ugm-3,16.81140,R,ugm-3,21.92623,R,ugm-3,62.56884,R,ugm-3
12-01-2020,15:00,7.47468,R,ugm-3,30.68660,R,ugm-3,42.14761,R,ugm-3,49.04739,R,ugm-3
12-01-2020,16:00,6.54806,R,ugm-3,34.09637,R,ugm-3,44.13660,R,ugm-3,46.93948,R,ugm-3
12-01-2020,17:00,13.40500,R,ugm-3,53.70151,R,ugm-3,74.25556,R,ugm-3,29.40787,R,ugm-3
12-01-2020,18:00,21.92984,R,ugm-3,65.82413,R,ugm-3,99.44941,R,ugm-3,21.13048,R,ugm-3
12-01-2020,19:00,27.02621,R,ugm-3,69.56488,R,ugm-3,111.00448,R,ugm-3,14.80676,R,ugm-3
12-01-2020,20:00,45.83645,R,ugm-3,85.42779,R,ugm-3,155.70936,R,ugm-3,4.93559,R,ugm-3
12-01-2020,21:00,36.10701,R,ugm-3,79.03546,R,ugm-3,134.39877,R,ugm-3,6.22090,R,ugm-3
12-01-2020,22:00,37.15717,R,ugm-3,77.14109,R,ugm-3,134.11463,R,ugm-3,5.08982,R,ugm-3